Location: Castro Valley
(37.6940°N, 122.0850°W)
Time: 10:05:24
(UTC-07:00)

PANSAT - Visible Passes

Search period start: 26 June 2016 00:00
Search period end: 06 July 2016 00:00
Orbit: 479 x 486 km, 28.5° (Epoch: 25 June)

Date Brightness Start Highest point End Pass type
(mag) Time Alt. Az. Time Alt. Az. Time Alt. Az.
26 Jun 9.1 04:59:26 12° SW 05:01:52 20° S 05:04:42 10° SE visible
27 Jun 9.0 04:32:07 19° SSW 04:32:58 20° S 04:35:48 10° SE visible
28 Jun 9.3 04:04:53 19° SSE 04:04:53 19° SSE 04:06:53 10° SE visible
29 Jun 10.1 03:37:46 11° SE 03:37:46 11° SE 03:37:59 10° SE visible
29 Jun 9.4 05:12:15 10° SW 05:14:29 15° SSW 05:16:43 10° SSE visible
30 Jun 9.3 04:45:02 15° SSW 04:45:34 15° SSW 04:47:47 10° SSE visible
01 Jul 9.8 04:18:17 12° SSE 04:18:17 12° SSE 04:18:51 10° SSE visible
